BLACK KITE-2

导读 | 豆包AI

BLACK KITE-2(黑鸢2号,NORAD编号68474)是中国台湾地区“国家太空中心”支持,由RapidTek公司开发的低轨物联网立方星星座的第二颗卫星,属于8U规格的CubeSat。该星座计划分阶段发射共四颗卫星,首星于2025年11月发射,BLACK KITE-2于2026年第一季度成功入轨,核心任务是验证物联网通信载荷技术,旨在搭建面向商用的低轨物联网卫星通信系统,为地面万物互联提供空间基础设施支撑。

基本信息
目录编号:
68474
目录名称:
BLACK KITE-2
国际标识:
2026-067BL
轨道中心:
EARTH
卫星名称:
BLACK KITE-2
卫星全名:
BLACK KITE-2
卫星状态:
在轨 (已飞行31 天)
发射日期:
2026-03-30 UTC
国别 :
(TW)
星等 :
--
轨道信息
数据来源 国际轨道数据
星历时间: 2026-04-30T05:00:35+0800
6小时前
查看轨道信息
半长轴: 6968.728km
偏心率: 0.0003619
轨道倾角: 97.752°
近地点辐角 63.667°
升交点赤经 78.898°
平近点角 296.492°
近地点: 588.069km
远地点: 593.113km
周期: 96.492分钟
每日圈数: 14.923562
详细信息
使用方式:
暂无
2D轨道图
3D轨道图
轨道高度分析图
轨道倾角分析图
轨道综合分析图
查看轨道综合分析图